Dewpoint
50 51 52 53 52 52 52 52 51 52 51 51 52 52 52 53 53 53 54 55 56 56 56 55 55 54 47 40 37 52 51 47 45 41 39 38 37 34 30 32 31 30 32 34 33 33 33
52 52 55 54 53 52 52 52 51 51 51 52 52 52 52 52 53 53 54 55 55 55 56 55 54 53 45 23 44 50 47 42 41 39 37 39 39 38 36 36 33 34 34 33 34 33 34
55 54 53 52 52 51 51 50 50 50 50 51 51 51 51 51 51 52 53 54 54 53 55 55 54 49 38 29 41 46 42 40 40 40 39 41 41 39 39 34 37 36 31 30 31 33 31
53 52 51 51 51 50 50 49 48 49 50 50 50 49 49 49 50 50 52 53 53 53 55 55 52 46 28 41 43 44 41 40 40 40 41 43 43 41 39 39 36 34 32 22 24 28 28
52 51 50 49 49 49 48 48 48 48 48 48 48 48 48 48 49 50 52 53 52 51 53 52 46 41 27 40 37 40 42 39 40 41 43 41 42 42 40 35 27 30 19 15 17 28 27
50 49 48 47 47 46 46 46 46 46 47 47 47 47 47 48 48 50 52 52 50 48 49 47 42 31 34 30 37 38 39 37 36 40 41 41 41 37 37 31 6 12 14 16 16 22 26
48 47 46 45 45 45 45 45 45 45 46 46 46 46 46 46 47 49 51 45 25 32 39 24 27 28 29 34 36 36 36 36 36 36 32 40 31 23 23 32 24 19 17 17 19 22 20
45 44 45 44 44 44 44 44 44 44 45 45 45 45 45 46 46 49 49 38 38 37 29 35 33 32 31 32 29 33 37 34 35 29 33 28 23 22 24 21 19 19 19 18 20 22 20
44 43 43 43 43 43 43 43 43 44 44 44 44 45 46 46 47 43 39 39 43 44 33 33 33 30 30 31 27 29 35 34 32 29 28 26 21 26 21 20 20 20 20 18 17 21 22
43 43 43 42 42 43 42 42 43 43 43 43 44 45 46 46 45 44 41 43 43 44 26 26 28 32 31 31 28 36 35 33 29 24 26 25 25 24 23 22 21 13 19 21 19 18 8
42 42 42 42 41 42 42 42 42 42 42 42 44 45 46 47 40 42 44 45 43 44 -8 23 29 34 34 31 31 32 36 32 26 26 25 16 23 21 20 20 20 17 22 19 19 20 21
41 41 41 41 41 42 42 42 42 42 42 44 44 46 48 45 46 46 46 46 44 22 -7 22 28 29 27 29 28 34 32 33 33 28 27 26 27 24 22 23 22 24 18 18 21 21 18
41 41 41 41 41 41 42 42 42 42 42 43 44 46 47 47 44 47 47 43 19 -2 12 17 20 25 24 24 26 30 30 29 20 16 16 23 24 26 26 22 24 23 19 8 10 18 15
40 40 41 41 42 42 41 41 40 41 42 44 45 46 45 45 46 46 45 27 0 13 16 20 18 13 16 17 20 27 26 24 28 24 22 19 13 23 25 21 21 22 19 7 3 7 4
40 41 42 42 41 41 40 40 40 40 43 44 44 42 43 43 46 46 36 13 9 17 24 23 16 6 12 11 19 19 24 22 21 25 22 17 14 23 24 22 21 18 16 19 15 16 13
41 43 40 40 40 40 40 40 40 40 43 43 40 40 40 42 46 44 29 20 22 25 27 25 14 10 8 13 12 11 12 15 19 22 22 18 12 19 21 22 23 23 24 17 17 5 10
42 40 39 40 40 40 40 40 40 40 43 41 38 33 39 42 45 36 18 24 26 28 28 25 23 21 18 18 15 15 13 17 23 23 22 20 17 16 21 19 14 21 17 20 20 20 12
39 40 41 40 40 39 39 38 38 38 42 40 38 24 37 42 32 33 27 28 29 28 27 26 25 24 24 24 22 19 16 16 29 26 19 22 19 15 14 16 20 23 19 18 13 11 14
41 41 40 39 38 37 37 37 37 38 40 40 32 29 36 36 24 26 25 25 24 26 27 28 28 28 28 26 23 23 20 29 29 28 26 25 20 14 12 17 20 17 17 17 17 18 15
40 40 39 37 36 36 36 36 36 37 40 40 29 19 26 29 26 20 16 15 22 24 26 28 29 28 25 25 25 24 23 26 27 28 30 29 22 17 12 11 19 17 17 19 19 17 17
38 37 36 36 36 35 36 36 36 37 40 34 25 22 21 8 16 16 16 17 17 20 22 22 26 22 25 22 20 20 19 19 21 23 27 26 23 22 22 22 22 21 21 20 19 19 17
37 36 36 35 34 35 37 36 36 35 37 29 26 24 26 23 21 14 14 16 18 17 15 18 17 15 15 16 15 15 17 18 18 19 20 24 25 26 24 23 22 22 22 21 21 20 19
36 35 34 34 34 36 36 36 36 36 36 31 32 31 26 23 17 14 15 16 15 16 16 16 16 16 15 14 16 16 16 17 17 16 15 17 22 22 16 20 18 17 18 19 21 24 22
35 35 35 36 35 35 37 36 36 36 37 34 34 33 23 18 18 18 19 18 18 17 17 15 15 17 17 16 15 13 12 11 10 11 14 13 16 17 13 17 10 13 19 23 20 21 22
37 38 37 36 35 36 36 36 36 36 37 35 35 31 27 19 19 20 19 19 20 18 17 19 17 16 17 16 13 9 3 3 3 8 8 11 13 11 11 13 11 14 12 12 20 15 15
36 35 34 33 34 33 34 35 36 36 36 36 35 35 31 24 19 21 21 21 18 19 21 20 20 21 18 17 14 8 4 5 1 0 19 15 11 11 10 8 2 9 9 11 20 17 13
33 33 33 33 35 34 33 34 35 35 35 36 35 36 32 25 25 23 20 20 21 21 21 20 23 21 19 16 13 9 8 17 10 12 12 16 15 12 8 8 11 9 9 21 17 13 12
34 34 34 35 36 34 32 34 35 35 35 36 34 36 32 28 27 28 25 23 23 23 20 19 22 22 19 18 15 11 10 13 9 5 9 7 5 14 13 13 11 9 8 12 16 15 15
34 33 34 35 35 33 35 34 33 34 35 35 32 35 36 30 25 27 28 28 26 25 23 26 23 25 25 21 20 20 13 9 6 1 4 2 7 10 7 7 14 14 14 12 11 11 11
Wind_Speed
12 12 12 13 13 14 16 17 16 17 17 18 19 19 20 20 20 20 18 16 14 12 11 11 11 12 4 1 7 6 6 1 4 5 5 6 6 4 2 5 5 5 5 7 7 13 13
11 11 13 16 17 16 15 16 17 17 19 19 20 20 21 21 20 20 20 18 16 13 11 8 8 9 2 6 5 11 7 2 1 3 4 3 3 2 4 4 3 2 10 18 10 8 8
11 16 17 14 15 15 16 16 18 18 19 20 21 21 22 22 22 22 21 19 18 13 9 7 5 2 2 10 3 9 6 1 1 3 2 2 3 1 4 4 3 4 10 13 7 8 7
16 14 14 15 15 16 17 18 18 19 20 21 22 23 23 23 24 24 23 19 15 10 6 5 3 1 5 0 2 6 5 2 2 1 1 3 4 3 3 6 4 3 3 5 3 11 3
15 15 15 15 16 16 18 19 20 21 22 22 23 24 24 25 26 27 25 20 9 4 2 2 0 2 5 1 4 8 8 2 5 2 0 1 1 2 2 3 3 3 7 7 6 12 6
14 14 15 16 16 18 19 20 21 21 23 24 24 26 26 26 27 27 28 14 2 1 2 4 5 3 2 2 2 3 4 2 3 3 1 1 1 2 3 4 6 4 6 6 10 3 8
13 14 14 16 17 18 19 20 21 22 23 24 25 26 27 28 27 27 15 3 5 2 2 8 4 2 6 5 5 5 4 3 2 2 3 4 2 12 12 16 7 5 6 12 18 7 5
13 13 15 16 17 18 20 21 22 23 24 24 26 26 27 27 27 28 5 5 2 3 15 10 17 10 1 3 1 5 10 6 6 6 5 2 14 14 8 5 6 5 8 18 15 7 5
13 14 15 16 17 19 21 22 23 24 24 25 26 28 28 26 27 5 8 4 2 2 5 7 1 2 2 6 5 8 13 5 8 7 10 12 5 8 7 8 8 11 11 14 10 8 6
13 13 15 17 19 20 21 22 24 25 26 27 28 27 25 27 2 6 3 2 1 2 4 4 2 1 2 1 3 2 13 2 3 6 7 10 9 12 10 12 10 14 6 5 6 5 7
12 15 16 17 19 21 22 23 25 26 27 28 28 25 22 10 5 3 5 8 2 1 8 1 2 1 3 2 1 2 1 2 7 3 0 8 5 7 11 12 11 10 2 6 8 5 4
14 15 16 18 19 21 23 25 26 28 29 29 28 20 16 4 1 5 10 11 1 2 7 1 3 1 1 5 3 4 2 2 4 5 7 19 2 5 8 5 7 2 6 8 2 4 6
13 15 16 18 19 22 24 26 27 29 31 31 24 15 9 5 3 12 11 2 2 4 5 2 2 2 2 5 6 9 7 7 7 5 9 5 9 7 5 5 3 2 0 4 3 5 11
13 14 16 18 20 22 24 26 28 30 33 31 23 12 2 5 8 9 3 3 5 3 6 6 7 13 6 6 6 7 3 6 13 14 7 6 12 9 5 8 5 9 7 6 7 8 5
13 15 16 19 21 23 25 27 28 31 32 29 15 3 2 8 7 5 3 2 3 2 4 11 13 9 4 4 4 5 9 11 6 14 11 4 6 1 7 1 3 4 8 1 4 1 4
12 15 18 20 21 24 27 29 31 32 34 24 3 3 4 9 6 3 3 3 2 4 5 4 3 5 8 7 11 7 4 3 3 5 3 3 9 5 3 1 2 4 1 3 1 5 7
13 15 16 18 21 24 27 30 33 35 35 20 3 3 4 8 3 3 2 3 3 4 7 3 4 6 6 12 8 8 8 4 5 7 6 3 5 6 3 7 10 4 5 7 3 5 6
13 13 16 18 21 24 27 30 33 34 34 15 6 3 6 4 2 1 2 1 1 3 6 4 6 10 10 4 9 7 9 4 8 4 4 4 3 10 12 6 3 6 8 11 12 7 7
13 14 16 18 21 24 27 30 33 34 29 7 5 3 5 4 2 4 8 5 3 2 2 5 4 7 6 4 7 7 4 4 12 5 2 6 5 9 7 2 1 3 5 7 5 1 12
12 15 16 18 21 23 26 29 33 35 33 2 3 5 6 7 5 5 8 7 5 10 4 4 6 7 9 4 7 10 12 5 12 5 5 2 5 8 18 8 7 9 9 6 4 6 4
13 14 16 17 20 22 25 27 31 35 33 2 8 5 3 6 5 11 7 5 12 7 14 11 4 13 8 6 11 9 10 15 12 15 8 3 10 11 19 15 15 22 20 12 15 14 14
12 13 14 16 18 19 22 24 27 32 23 10 5 6 7 7 9 7 7 9 12 11 12 9 11 16 14 11 12 18 12 7 9 12 11 7 8 7 16 12 17 26 22 16 21 19 21
11 12 13 14 15 18 20 21 23 28 21 8 6 5 3 6 11 8 8 12 14 15 7 9 19 18 18 16 9 15 18 20 25 26 16 12 5 6 14 4 8 14 12 21 12 12 5
9 10 10 12 13 15 17 17 19 21 17 5 4 2 5 4 10 7 14 17 18 18 16 18 19 16 10 12 15 18 22 30 32 33 26 16 8 7 11 4 12 1 25 21 26 20 18
8 10 11 12 13 14 14 15 16 17 17 7 3 4 3 4 5 6 17 12 14 14 18 19 7 10 11 9 9 11 13 5 10 18 21 26 18 7 7 14 11 8 14 11 10 10 19
9 9 10 11 12 13 14 14 14 14 14 6 2 3 4 1 2 8 6 6 16 12 8 9 20 14 10 4 5 8 10 16 7 12 9 14 25 16 7 7 6 12 24 25 7 4 20
8 8 8 9 11 12 12 13 14 14 13 4 2 1 1 2 7 2 8 10 6 7 9 10 6 14 10 9 6 9 9 11 6 7 11 11 4 20 18 8 4 21 21 12 5 8 16
7 7 9 10 11 12 12 12 13 12 12 4 4 2 1 3 14 7 4 8 11 6 12 13 11 1 5 5 4 4 5 4 4 6 3 6 9 7 6 11 5 25 10 9 7 13 17
7 8 9 10 9 11 12 11 13 13 12 8 3 3 2 5 12 12 19 22 21 24 12 3 5 6 3 6 2 5 5 4 5 8 4 4 6 6 6 8 8 14 15 14 18 16 18
Wind_Direction
57 53 49 44 39 31 26 22 15 13 7 2 359 356 353 348 345 343 338 329 320 311 308 313 319 325 337 236 247 161 150 168 301 334 9 4 24 15 307 332 343 232 281 293 280 294 283
59 53 45 40 35 25 23 19 14 10 3 359 357 354 350 346 342 338 333 325 317 306 297 297 307 326 319 257 117 152 163 201 10 359 353 36 28 334 275 263 260 266 288 284 284 262 243
53 51 38 34 32 25 22 18 12 7 360 357 353 350 347 342 339 336 331 325 319 306 286 276 289 302 267 247 162 158 163 142 52 4 357 44 35 21 321 274 329 281 303 317 251 235 234
52 43 37 33 30 26 19 12 7 2 358 355 350 347 344 339 336 333 329 323 319 315 286 266 275 202 241 226 123 164 197 189 150 174 15 40 14 300 246 311 300 256 230 317 240 167 211
49 43 38 29 20 17 15 9 4 360 357 354 349 346 343 339 335 330 327 321 302 318 258 224 78 176 276 130 190 210 196 224 161 122 19 334 44 254 257 308 313 242 277 284 319 199 171
42 34 28 24 20 15 12 9 4 359 356 353 349 345 341 338 333 330 330 321 143 326 248 227 280 305 239 258 153 149 192 166 184 192 284 130 189 266 239 186 261 247 269 280 274 229 223
39 32 27 26 19 16 12 9 4 360 356 351 347 343 339 334 330 327 344 355 5 338 220 222 250 228 149 133 137 185 163 149 247 196 243 205 225 238 242 219 238 250 267 271 277 252 275
41 34 33 26 20 15 12 8 2 359 354 349 344 341 335 330 328 324 339 66 81 283 306 269 259 258 144 145 261 215 156 177 180 218 186 221 253 248 228 186 228 256 274 279 280 199 307
46 40 32 26 20 15 11 6 1 356 352 348 343 338 331 328 321 359 81 81 332 358 294 309 141 117 275 156 246 213 169 199 214 235 229 221 242 164 219 261 252 257 242 269 261 318 305
48 38 30 24 18 14 10 5 359 354 350 346 341 335 331 330 354 348 76 5 233 116 339 284 33 55 80 200 247 143 190 246 248 267 246 242 251 244 231 256 210 261 223 233 284 342 296
45 37 29 23 18 12 8 4 358 353 349 343 340 333 331 337 321 50 345 338 288 114 318 68 127 268 109 229 250 184 60 71 242 240 320 254 235 228 235 238 189 240 227 247 258 235 300
42 36 31 25 18 12 6 2 357 352 348 342 340 338 342 67 309 353 335 326 57 62 252 181 134 169 283 202 225 147 166 170 253 283 238 252 229 220 233 249 233 329 314 299 150 159 256
41 34 26 21 15 9 4 359 355 351 346 342 341 336 335 322 339 329 332 32 83 205 328 26 34 210 254 242 217 195 185 195 213 293 282 298 240 216 203 263 223 182 186 270 261 198 237
38 29 21 15 10 6 0 356 353 350 346 343 339 334 2 54 334 338 9 70 213 234 292 11 357 309 250 270 262 209 216 265 233 225 263 267 296 189 183 207 215 193 202 206 248 232 226
34 23 13 13 10 4 1 358 354 351 347 345 337 2 48 335 342 2 85 161 228 302 342 343 338 309 265 32 308 306 225 250 260 205 213 245 260 133 164 210 190 195 213 221 270 273 256
30 28 21 12 11 8 4 2 358 355 349 342 356 17 359 332 3 24 94 226 242 38 8 348 299 283 296 328 328 349 284 332 343 37 319 262 284 219 223 224 228 215 277 211 185 264 252
36 21 21 20 15 9 6 3 0 357 351 347 35 72 315 344 39 36 187 244 316 2 21 328 296 294 288 309 255 283 265 334 358 328 344 299 230 264 138 211 222 192 218 213 206 200 255
32 30 33 25 18 13 9 4 360 0 356 33 341 56 307 35 339 287 259 287 314 324 16 297 279 272 267 305 290 261 248 253 355 325 304 6 269 255 239 253 224 203 222 203 225 249 232
40 42 34 27 20 13 8 4 1 358 0 327 355 313 334 46 49 340 331 312 313 279 36 335 304 23 337 321 314 300 305 75 14 17 34 346 258 277 289 243 305 215 201 228 254 210 245
49 43 33 24 18 14 14 11 5 356 351 59 13 20 352 31 39 33 359 310 331 347 352 341 301 326 344 311 255 290 303 7 340 333 309 224 249 245 253 276 332 279 254 252 226 233 251
43 34 29 28 27 21 20 16 11 1 352 70 25 45 37 340 353 345 339 293 309 347 7 0 322 18 354 305 319 282 350 330 319 314 322 259 264 247 271 286 282 275 271 264 257 247 251
45 38 36 29 25 23 22 18 16 9 2 60 58 15 357 323 322 346 346 17 31 354 357 322 328 349 349 319 304 309 326 333 280 333 340 325 267 293 283 296 285 276 276 265 252 259 262
51 41 37 34 29 25 25 22 21 23 23 67 10 351 54 342 355 11 19 341 327 332 312 343 331 321 315 301 302 288 273 259 256 267 266 281 286 321 273 344 306 283 287 255 244 42 308
57 46 33 30 26 22 23 21 23 26 38 70 22 1 38 332 357 355 352 348 343 333 322 327 323 300 294 329 316 290 268 257 251 251 237 244 239 241 270 292 258 257 33 94 84 53 41
41 37 29 23 20 20 17 17 20 24 31 41 6 48 49 312 291 334 341 321 325 333 323 303 318 323 309 339 315 306 295 289 279 239 235 219 218 241 233 211 272 342 358 324 335 51 21
48 36 23 17 11 14 12 14 15 18 17 39 356 100 82 297 242 313 291 315 315 318 311 303 315 320 316 317 265 279 298 301 300 333 17 239 206 196 193 225 239 357 333 324 250 102 349
39 27 12 8 3 9 9 8 8 5 13 39 318 54 87 277 276 252 300 309 284 298 290 295 336 317 303 239 262 276 285 323 313 22 332 353 1 227 227 248 118 4 357 354 90 325 350
27 15 4 356 3 1 4 359 3 8 7 36 286 298 138 265 276 255 265 261 287 282 285 292 314 353 327 314 266 312 287 226 236 266 283 318 319 6 329 224 245 7 5 50 5 18 15
10 7 360 357 357 352 348 354 354 350 348 4 332 284 192 216 260 289 274 267 258 255 260 217 247 277 260 268 315 262 294 306 0 320 353 6 3 298 269 293 68 16 66 34 18 354 340